Location: Bacea
(45.9500°N, 22.6667°E)
Time: 09:53:08
(UTC+00:00)

CZ-2C R/B - Pass Details

Date: 16 October 2021
Orbit: 784 x 871 km, 98.2° (Epoch: 02 December)

Event Time Altitude Azimuth Distance (km) Brightness Sun altitude
Rises 17:47:14 0° 6° (N) 3,471 6.0 -22.6°
Reaches altitude 10° 17:49:48 10° 358° (N) 2,529 5.3 -23.0°
Maximum altitude 17:54:51 35° 295° (WNW) 1,371 4.3 -23.9°
Drops below altitude 10° 17:59:50 10° 231° (SW) 2,494 5.6 -24.7°
Sets 18:02:22 0° 223° (SW) 3,417 6.2 -25.1°
